Вернуться в каталог

NOAA 4

АктивенПогодаSSO
NORAD 7529·PAYLOAD·🇺🇸 United States

Запущен Nov 15, 1974 с Vandenberg Space Force Base

Loading…

Ближайшие Пролёты (ближайшие 24 часа)

TLE

СвежийSource: Space-Track

Эпоха: Sep 14, 2026, 00:35 UTC

1 07529U 74089A   26257.02480678 -.00000035  00000-0  69576-4 0  9994
2 07529 102.0029 270.7363 0009267  29.7732 354.4000 12.53206285370652

Отслеживайте NOAA 4 в реальном времени с AllMySat

Download on the App Store